Simultaneous Nadir Overpasses (SNOs) Predictions

Prediction of SNOs between GOES-16 and METOP-C Satellite Orbit:

Table of predicted SNOs for the next 14.0 days since TLE Epoch: 12/30/2024
Index Date Time (GOES-16) GOES-16 Lat,Lon METOP-C Lat,Lon Distance(km) Time Diff (sec)
1 12/31/2024 14:46:20 -0.02, -75.21 0.84, -78.99 431.19 80
2 01/01/2025 14:28:21 -0.02, -75.22 -0.32, -74.01 138.79 80
3 01/03/2025 02:47:19 0.02, -75.19 -0.71, -78.59 386.65 80
4 01/04/2025 02:23:58 0.01, -75.20 0.35, -73.58 184.18 80
5 01/05/2025 14:45:28 0.01, -75.25 0.67, -78.14 329.61 80
6 01/06/2025 14:22:08 0.00, -75.26 -0.45, -73.14 241.12 80
7 01/08/2025 02:43:46 0.01, -75.24 -0.56, -77.73 283.48 80
8 01/09/2025 02:20:25 0.02, -75.26 0.57, -72.73 287.43 80
9 01/10/2025 14:39:16 -0.01, -75.31 0.42, -77.29 225.85 80
10 01/11/2025 14:21:14 -0.01, -75.32 -0.66, -72.28 345.54 80
11 01/13/2025 02:40:13 0.00, -75.31 -0.33, -76.88 177.77 80
